Zurück zum Katalog

STARLINK-1458

AktivKommunikationVLEO
NORAD 45675·PAYLOAD·🇺🇸 United States

Gestartet Jun 4, 2020 von Cape Canaveral Space Force Station

Loading…

Nächste Überflüge (nächste 24 Stunden)

TLE

AktuellSource: CelesTrak SupGP

Epoche: Sep 15, 2026, 01:49 UTC

1 45675C 20035U   26258.07618056  .00066148  00000+0  40993-3 0  2583
2 45675  53.0394 214.1049 0005462  77.5975 135.4540 15.76303525    11

Verfolge STARLINK-1458 in Echtzeit mit AllMySat

Download on the App Store